Location: Boncourt
(49.6160°N, 3.9448°E)
Time: 21:14:22
(UTC+00:00)

Cosmos 2369 Rocket - Pass Details

Date: 09 February 2023
Orbit: 829 x 852 km, 71.0° (Epoch: 21 March)

Event Time Altitude Azimuth Distance (km) Brightness Sun altitude
Rises 18:39:22 0° 334° (NNW) 3,383 5.7 -17.6°
Reaches altitude 10° 18:42:40 10° 353° (N) 2,447 4.7 -18.2°
Maximum altitude 18:46:24 18° 35° (NE) 1,951 3.8 -18.8°
Enters shadow 18:46:36 18° 38° (NE) 1,953 3.7 -18.8°
